Total_Precipitation_Accumulation
0.84 0.83 0.79 0.86 0.84 0.86 0.94 0.91 0.79 0.80 0.75 0.63 0.61 0.63 0.72 0.73 0.85 0.94 1.10 1.41 1.87 2.30 2.36 2.18 1.88 1.70 1.70 1.74 1.69 1.71 1.71 1.77 1.91 2.05 1.93 1.83 1.80 1.69 1.58 1.80 1.99 2.19 2.35
0.68 0.80 0.81 0.90 0.85 0.91 0.99 0.88 0.80 0.83 0.83 0.71 0.65 0.69 0.72 0.74 0.81 0.96 1.07 1.26 1.50 1.97 2.41 2.48 2.28 2.08 1.92 1.94 2.00 2.06 1.88 1.78 1.82 2.00 1.98 1.80 1.71 1.59 1.50 1.61 1.93 2.05 2.29
0.66 0.79 0.87 0.91 0.90 0.93 0.94 0.95 0.95 0.90 0.83 0.75 0.73 0.71 0.70 0.73 0.90 1.02 1.06 1.20 1.22 1.30 1.79 2.38 2.60 2.53 2.31 2.27 2.25 2.18 2.05 1.92 1.82 1.87 1.93 1.77 1.65 1.48 1.47 1.49 1.66 1.69 1.93
0.70 0.91 0.98 0.90 0.95 1.05 1.11 1.15 1.11 1.03 0.94 0.91 0.93 0.89 0.79 0.84 1.04 1.14 1.07 1.04 1.09 1.02 1.15 1.49 1.85 2.14 2.42 2.52 2.53 2.36 2.19 2.06 1.82 1.78 1.77 1.74 1.59 1.37 1.31 1.36 1.47 1.53 1.61
0.90 1.07 1.15 1.07 1.06 1.23 1.22 1.12 1.17 1.22 1.14 1.15 1.10 1.09 1.01 1.01 1.07 1.03 1.03 1.10 1.16 1.14 1.15 1.03 1.15 1.40 1.94 2.40 2.67 2.84 2.58 2.41 2.12 1.95 1.81 1.60 1.45 1.36 1.29 1.27 1.32 1.41 1.46
1.13 1.29 1.39 1.35 1.32 1.46 1.48 1.37 1.50 1.52 1.44 1.48 1.34 1.24 1.18 1.16 1.15 1.13 1.12 1.21 1.33 1.23 1.24 1.13 1.05 0.90 1.15 1.64 2.21 2.69 2.71 2.63 2.39 2.08 1.93 1.58 1.43 1.30 1.23 1.25 1.29 1.33 1.39
1.53 1.65 1.62 1.85 1.92 1.92 1.93 1.89 2.04 2.09 1.83 1.66 1.98 1.95 1.56 1.27 1.16 1.23 1.32 1.36 1.47 1.48 1.42 1.35 1.27 1.07 0.98 1.11 1.48 2.24 2.53 2.53 2.34 2.13 2.09 1.81 1.50 1.34 1.25 1.28 1.35 1.33 1.41
1.89 1.80 1.88 2.12 2.18 2.30 2.41 2.26 2.41 2.52 2.19 1.90 2.35 2.82 2.39 1.93 1.33 1.11 1.24 1.39 1.56 1.59 1.51 1.39 1.36 1.32 1.23 1.24 1.20 1.62 2.10 2.41 2.37 2.21 2.17 2.09 1.72 1.51 1.33 1.31 1.35 1.37 1.36
2.29 2.17 2.12 2.26 2.29 2.38 2.61 2.65 2.59 2.73 2.68 2.33 2.29 2.81 2.77 2.41 1.98 1.44 1.28 1.35 1.53 1.65 1.69 1.67 1.51 1.49 1.39 1.41 1.44 1.28 1.38 1.73 2.10 2.20 2.18 2.18 2.01 1.74 1.50 1.38 1.39 1.32 1.22
2.45 2.39 2.34 2.41 2.44 2.41 2.55 2.62 2.59 2.85 3.09 2.83 2.54 2.30 2.24 2.29 2.34 1.95 1.54 1.40 1.53 1.63 1.76 1.71 1.72 1.77 1.71 1.64 1.60 1.30 1.10 1.19 1.57 2.00 2.17 2.28 2.21 1.98 1.71 1.56 1.59 1.44 1.30
2.19 2.15 2.26 2.42 2.44 2.43 2.45 2.62 2.74 2.95 2.99 2.94 2.81 2.65 2.46 2.31 1.97 2.04 1.95 1.70 1.65 1.56 1.69 1.86 1.92 1.95 1.88 1.96 2.01 1.52 1.15 1.06 1.27 1.67 2.11 2.33 2.40 2.33 2.06 1.80 1.70 1.69 1.64
2.02 1.92 2.02 2.12 2.21 2.27 2.27 2.33 2.49 2.65 2.85 3.00 2.94 2.77 2.71 2.65 2.45 2.27 1.97 1.82 1.88 1.73 1.63 1.67 1.76 1.85 1.99 2.04 1.92 1.74 1.28 1.09 1.17 1.27 1.55 2.02 2.34 2.55 2.46 2.29 2.13 1.99 1.98
1.98 1.90 1.86 1.91 1.98 2.03 2.13 2.31 2.31 2.36 2.55 2.74 2.76 2.70 2.71 2.56 2.48 2.50 2.27 1.92 1.84 1.73 1.64 1.58 1.55 1.64 1.73 1.84 1.88 1.78 1.34 1.22 1.16 1.11 1.06 1.16 1.55 2.04 2.44 2.58 2.58 2.37 2.35
1.60 1.57 1.61 1.69 1.82 1.91 2.00 2.16 2.22 2.18 2.26 2.33 2.36 2.50 2.60 2.51 2.32 2.26 2.29 2.34 2.09 1.85 1.67 1.53 1.46 1.49 1.57 1.60 1.72 1.72 1.28 1.14 1.09 1.04 0.98 0.86 0.94 1.19 1.62 1.99 2.13 2.26 2.46
1.21 1.23 1.29 1.42 1.61 1.74 1.79 1.89 2.05 2.04 2.10 2.10 2.17 2.24 2.26 2.32 2.19 2.03 2.01 2.11 2.24 2.04 1.88 1.69 1.47 1.28 1.37 1.37 1.44 1.26 1.21 1.14 1.03 0.96 0.92 0.85 0.79 0.83 1.03 1.37 1.50 1.46 1.56
1.07 1.16 1.18 1.25 1.38 1.47 1.56 1.72 1.87 1.95 1.99 1.96 1.95 2.02 2.06 2.12 2.13 2.11 2.08 2.08 2.06 2.00 1.91 1.72 1.43 1.16 1.23 1.30 1.45 1.25 1.29 1.37 1.17 1.02 0.91 0.89 0.86 0.81 0.84 0.97 1.06 0.97 0.93
1.07 1.14 1.18 1.21 1.23 1.32 1.38 1.49 1.63 1.78 1.81 1.82 1.71 1.74 1.85 1.91 2.08 2.13 2.10 2.06 2.03 1.94 1.82 1.73 1.49 1.26 1.25 1.33 1.40 1.32 1.35 1.35 1.18 1.10 1.01 0.95 0.86 0.89 0.92 0.94 1.01 0.94 0.80
0.94 1.03 1.15 1.13 1.12 1.17 1.26 1.36 1.46 1.52 1.63 1.60 1.50 1.52 1.63 1.69 1.83 1.95 2.05 1.96 1.96 1.91 1.91 1.86 1.64 1.42 1.35 1.36 1.44 1.40 1.29 1.27 1.25 1.24 1.13 1.06 0.97 0.90 0.95 0.93 1.03 1.08 0.99
0.87 0.98 1.12 1.24 1.16 1.06 1.16 1.25 1.29 1.32 1.34 1.29 1.28 1.33 1.38 1.44 1.57 1.68 1.78 1.87 1.89 1.81 1.91 1.91 1.70 1.48 1.36 1.32 1.36 1.34 1.30 1.36 1.26 1.27 1.23 1.13 1.08 1.01 1.01 1.00 0.99 1.07 1.07
0.70 0.75 0.90 1.01 1.07 1.04 1.01 1.02 1.06 1.21 1.22 1.13 1.04 1.04 1.06 1.08 1.20 1.33 1.44 1.59 1.76 1.88 1.96 1.99 1.84 1.56 1.38 1.33 1.38 1.43 1.44 1.38 1.39 1.27 1.27 1.25 1.24 1.19 1.12 1.12 1.02 0.99 1.05
0.56 0.63 0.79 0.96 1.03 1.03 1.05 1.05 0.99 1.04 1.10 1.12 1.05 0.93 0.86 0.85 0.95 1.03 1.13 1.39 1.59 1.76 1.90 1.97 1.89 1.72 1.53 1.44 1.39 1.39 1.48 1.59 1.59 1.43 1.36 1.27 1.23 1.11 1.01 1.04 1.03 0.97 0.94
0.53 0.55 0.64 0.79 0.95 0.92 1.08 1.13 1.06 0.98 0.98 0.99 0.99 0.97 0.96 0.91 0.79 0.76 0.82 0.99 1.23 1.44 1.63 1.76 1.79 1.66 1.49 1.45 1.49 1.49 1.48 1.55 1.61 1.46 1.42 1.48 1.41 1.28 1.13 1.03 1.09 1.01 0.94
0.53 0.52 0.58 0.71 0.84 0.98 1.01 0.90 0.97 0.99 0.96 0.97 0.95 0.94 0.96 0.95 0.99 0.89 0.83 0.82 0.85 1.02 1.27 1.49 1.53 1.49 1.55 1.47 1.43 1.38 1.36 1.36 1.37 1.39 1.41 1.45 1.45 1.32 1.15 1.09 1.19 1.13 1.06
0.51 0.51 0.53 0.58 0.66 0.84 0.90 0.79 0.98 1.01 1.02 1.03 1.00 1.01 1.05 1.07 1.03 1.14 1.11 1.01 0.94 0.93 1.03 0.98 1.09 1.37 1.49 1.50 1.49 1.50 1.53 1.45 1.38 1.36 1.31 1.35 1.30 1.25 1.14 1.06 1.12 1.06 1.00
0.51 0.49 0.48 0.49 0.53 0.61 0.71 0.68 0.82 0.97 1.08 1.08 0.98 0.96 1.02 1.04 1.24 1.28 1.19 1.16 1.08 1.02 1.17 1.18 1.20 1.26 1.34 1.35 1.35 1.43 1.50 1.45 1.39 1.32 1.25 1.16 1.12 1.21 1.26 1.16 1.12 1.17 1.11
0.60 0.52 0.48 0.46 0.50 0.52 0.65 0.53 0.65 0.82 1.00 1.13 1.06 0.99 1.14 1.10 1.11 1.06 1.02 1.21 1.18 1.07 0.98 0.95 0.96 1.02 1.04 1.10 1.17 1.20 1.35 1.38 1.32 1.32 1.20 1.15 1.11 1.19 1.26 1.18 1.05 1.03 1.07